Flag for Romania Weather past 2 weeks in Bucharest, Romania

Now
70 °F

Clear.


Feels Like: 70 °F
Forecast: 67 / 94 °F
Wind: 1 mph from Northwest

Location: Bucharest / Imh

Current Time: Aug 29, 2015 at 1:32:22 AM

Latest Report: Aug 29, 2015 at 12:30 AM


Visibility: 10 mi

Pressure: 30.15 "Hg

Humidity: 69%

Dew point: 59 °F

Location of BucharestLocation

Historic Weather in Bucharest — Graph

°F

Bucharest temperature yesterday

Maximum temperature yesterday: 90 °F (at 2:30 PM)
Minimum temperature yesterday: 63 °F (at 4:30 AM)
Average temperature yesterday: 77 °F

Past Weeks' High & Low Weather Summary

 TemperatureHumidityPressure
High97 °F (Aug 16, 3:30 PM)100% (Aug 17, 11:00 PM)30.18 "Hg (Aug 17, 11:00 PM)
Low57 °F (Aug 21, 5:00 AM)25% (Aug 26, 4:30 PM)29.74 "Hg (Aug 16, 4:30 PM)
Average72 °F65%30.01 "Hg
* Reported Midnight between Aug 13 and Aug 14 — Midnight between Aug 28 and Aug 29, Bucharest, Weather by CustomWeather, © 2015

Note: Actual official high and low records may vary slightly from our data, if they occured in-between our weather recording intervals... More about our weather records

Advertising

Bucharest weather history for previous 24 hours

 ConditionsComfort  
Time TempWeatherWind HumidityBarometerVisibility
12:00 AM
Sat, Aug 29
70 °FClear.2 mph69%30.15 "Hg10 mi
11:30 PM
Fri, Aug 28
73 °FClear.No wind61%30.15 "Hg10 mi
11:00 PM73 °FClear.No wind57%30.15 "Hg10 mi
10:30 PM75 °FClear.1 mph54%30.12 "Hg10 mi
10:00 PM75 °FClear.1 mph54%30.12 "Hg10 mi
9:30 PM77 °FClear.No wind51%30.12 "Hg10 mi
9:00 PM81 °FClear.No wind42%30.12 "Hg10 mi
8:30 PM82 °FSunny.No wind40%30.12 "Hg10 mi
8:00 PM86 °FSunny.2 mph31%30.12 "Hg10 mi
7:30 PM88 °FSunny.5 mph29%30.12 "Hg10 mi
7:00 PM88 °FSunny.5 mph29%30.12 "Hg10 mi
6:30 PM90 °FPassing clouds.6 mph27%30.12 "HgN/A
6:00 PM90 °FPassing clouds.7 mph27%30.12 "HgN/A
5:30 PM90 °FPassing clouds.7 mph29%30.12 "HgN/A
5:00 PM90 °FHot.6 mph29%30.12 "HgN/A
4:30 PM90 °FPassing clouds.6 mph29%30.12 "HgN/A
4:00 PM90 °FPassing clouds.8 mph29%30.12 "HgN/A
3:30 PM90 °FPassing clouds.7 mph29%30.12 "HgN/A
3:00 PM90 °FPassing clouds.9 mph27%30.12 "HgN/A
2:30 PM90 °FHot.8 mph29%30.12 "HgN/A
2:00 PM88 °FPleasantly warm.7 mph31%30.15 "HgN/A
1:30 PM88 °FPassing clouds.7 mph27%30.15 "HgN/A
1:00 PM88 °FPassing clouds.8 mph29%30.15 "HgN/A
12:30 PM88 °FPassing clouds.7 mph35%30.15 "HgN/A
12:00 PM86 °FPassing clouds.7 mph35%30.15 "HgN/A
11:30 AM84 °FPassing clouds.7 mph40%30.15 "HgN/A
11:00 AM82 °FPassing clouds.6 mph42%30.15 "HgN/A
10:30 AM82 °FPassing clouds.6 mph45%30.15 "HgN/A
10:00 AM79 °FPassing clouds.3 mph54%30.15 "HgN/A
9:30 AM75 °FPassing clouds.2 mph61%30.15 "HgN/A
9:00 AM73 °FPassing clouds.3 mph65%30.15 "HgN/A
8:30 AM70 °FSunny.1 mph73%30.15 "Hg10 mi
8:00 AM66 °FSunny.2 mph78%30.15 "Hg10 mi
7:30 AM64 °FMild.2 mph83%30.15 "HgN/A
7:00 AM63 °FFog.3 mph83%30.15 "Hg5 mi
6:30 AM63 °FFog.2 mph83%30.12 "Hg5 mi
6:00 AM63 °FClear.2 mph83%30.12 "Hg10 mi
5:30 AM63 °FClear.3 mph83%30.12 "Hg10 mi
5:00 AM63 °FClear.2 mph83%30.12 "Hg10 mi
4:30 AM63 °FClear.1 mph83%30.12 "Hg10 mi
4:00 AM64 °FClear.2 mph78%30.12 "Hg10 mi
3:30 AM66 °FClear.1 mph73%30.12 "Hg10 mi
3:00 AM66 °FClear.1 mph73%30.12 "Hg10 mi
2:30 AM66 °FClear.1 mph73%30.12 "Hg10 mi
2:00 AM66 °FClear.2 mph73%30.12 "Hg10 mi
1:30 AM68 °FClear.No wind69%30.12 "Hg10 mi
1:00 AM68 °FClear.1 mph69%30.12 "Hg10 mi
Weather by CustomWeather, © 2015

See weather overviewHow to use our weather pages